Amarillo, TX

1:10 PM CDT on September 20, 2019 (GMT -0500)
Amarillo International

Weather History for KAMA - May, 2019

Change the Weather History Date:

Monday, May 27, 2019

  Actual Average Record
Temperature  
Mean Temperature 74 °F 69 °F  
Max Temperature 86 °F 82 °F 99 °F (1945)
Min Temperature 61 °F 55 °F 38 °F (1907)
Degree Days  
Heating Degree Days 0 1  
Month to date heating degree days 111 79  
Since 1 July heating degree days 4094 4167  
Cooling Degree Days 9 5  
Month to date cooling degree days 44 81  
Year to date cooling degree days 60 102  
Growing Degree Days 20 (Base 50)    
Moisture  
Dew Point 56 °F    
Average Humidity 60    
Maximum Humidity 100    
Minimum Humidity 19    
Precipitation  
Precipitation 0.00 in 0.10 in 3.52 in (1902)
Month to date precipitation 3.35 1.87  
Year to date precipitation 7.44 5.94  
Snow  
Snow 0.00 in 0.00 in T in (2002)
Month to date snowfall 0.0 0.2  
Since 1 July snowfall 8.1 17.8  
Snow Depth 0.00 in    
Sea Level Pressure  
Sea Level Pressure 29.68 in    
Wind  
Wind Speed 16 mph (South)    
Max Wind Speed 33 mph    
Max Gust Speed 40 mph    
Visibility 9 miles    
Events      
T = Trace of Precipitation, MM = Missing Value Source: NWS Daily Summary

Daily Weather History Graph

Daily Weather History Graph

Search for Another Location

Airport or City:

Astronomy

May. 27, 2019 Rise Set
Actual Time 6:35 AM CDT 8:52 PM CDT
Civil Twilight 6:06 AM CDT 9:21 PM CDT
Nautical Twilight 5:31 AM CDT 9:57 PM CDT
Astronomical Twilight 4:52 AM CDT 10:36 PM CDT
Moon 3:01 AM CDT (5/27) 2:25 PM CDT (5/27)
Length of Visible Light 15h 15m
Length of Day
14h 17m
Last Quarter, 40% of the Moon is Illuminated
May 27
Last Quarter
Jun 3
New
Jun 10
First Quarter
Jun 17
Full
Jun 25
Last Quarter

Hourly Weather History & Observations

Time (CDT) Temp. Dew Point Humidity Pressure Visibility Wind Dir Wind Speed Gust Speed Precip Events Conditions
12:23 AM 66.9 °F 64.0 °F 90% 29.90 in 10.0 mi South 9.2 mph 17.3 mph N/A   Mostly Cloudy
12:53 AM 66.9 °F 63.0 °F 87% 29.75 in 10.0 mi South 10.4 mph - N/A   Overcast
1:25 AM 68.0 °F 63.0 °F 84% 29.87 in 10.0 mi South 15.0 mph - N/A   Scattered Clouds
1:53 AM 66.9 °F 63.0 °F 87% 29.75 in 10.0 mi South 12.7 mph - N/A   Clear
2:53 AM 66.0 °F 62.1 °F 87% 29.74 in 9.0 mi SSE 13.8 mph - N/A   Clear
3:53 AM 64.0 °F 61.0 °F 90% 29.73 in 8.0 mi SSE 12.7 mph - N/A   Clear
4:53 AM 62.1 °F 60.1 °F 93% 29.73 in 6.0 mi SSE 11.5 mph - N/A   Clear
5:53 AM 62.1 °F 60.1 °F 93% 29.74 in 5.0 mi SSE 11.5 mph - N/A   Clear
6:53 AM 61.0 °F 60.1 °F 97% 29.75 in 4.0 mi South 11.5 mph - N/A   Clear
7:53 AM 63.0 °F 61.0 °F 93% 29.75 in 4.0 mi South 12.7 mph - N/A   Clear
8:53 AM 66.0 °F 63.0 °F 90% 29.74 in 7.0 mi SSW 12.7 mph - N/A   Clear
9:53 AM 70.0 °F 63.0 °F 78% 29.75 in 10.0 mi SSW 10.4 mph - N/A   Clear
10:53 AM 73.9 °F 62.1 °F 66% 29.72 in 10.0 mi SSW 9.2 mph - N/A   Clear
11:53 AM 78.1 °F 55.9 °F 46% 29.71 in 10.0 mi SSW 11.5 mph - N/A   Clear
12:53 PM 80.1 °F 52.0 °F 38% 29.69 in 10.0 mi SSW 9.2 mph - N/A   Clear
1:53 PM 82.0 °F 48.0 °F 30% 29.66 in 10.0 mi SSW 15.0 mph - N/A   Clear
2:53 PM 82.9 °F 46.0 °F 27% 29.63 in 10.0 mi South 24.2 mph 31.1 mph N/A   Clear
3:53 PM 84.0 °F 48.9 °F 29% 29.60 in 10.0 mi SSW 17.3 mph 24.2 mph N/A   Clear
4:53 PM 84.9 °F 39.9 °F 20% 29.57 in 10.0 mi South 21.9 mph 29.9 mph N/A   Clear
5:53 PM 84.9 °F 37.9 °F 19% 29.55 in 10.0 mi South 32.2 mph 40.3 mph N/A   Clear
6:53 PM 84.0 °F 37.0 °F 19% 29.53 in 10.0 mi South 25.3 mph 36.8 mph N/A   Clear
7:53 PM 81.0 °F 48.9 °F 33% 29.53 in 10.0 mi SSE 19.6 mph - N/A   Clear
8:53 PM 77.0 °F 57.9 °F 52% 29.53 in 10.0 mi SSE 19.6 mph 26.5 mph N/A   Clear
9:53 PM 73.0 °F 61.0 °F 66% 29.53 in 10.0 mi SSE 17.3 mph - N/A   Clear
10:53 PM 73.0 °F 63.0 °F 71% 29.54 in 10.0 mi SSE 17.3 mph - N/A   Clear
11:53 PM 73.9 °F 64.0 °F 71% 29.54 in 10.0 mi South 23.0 mph 28.8 mph N/A   Clear